{"data":{"norad_id":45435,"intl_designator":"2020-020M","name":"ONEWEB-0083","alt_names":[],"object_type":"PAYLOAD","status":"ACTIVE","operator":null,"country":"UK","launch_date":"2020-03-21","launch_site_code":"TYMSC","launch_vehicle":null,"mission":null,"orbit_class":"UNKNOWN","rcs_meters":null,"size_class":null,"mass_kg":null,"dimensions":null,"purposes":["comms"],"wikipedia_slug":null,"has_3d_model":false,"image_url":null,"decayed_at":null,"tle_current":{"epoch":"2026-05-25T02:09:31.033728Z","epoch_age_seconds":77991,"freshness":"FRESH","line1":"1 45435U 20020M   26145.08994252 -.00000332  00000+0 -97166-3 0  9993","line2":"2 45435  87.8919  25.6538 0001731  79.9393 280.1930 13.11417448299643","mean_motion":13.11417448,"eccentricity":0.0001731,"inclination_deg":87.8919,"raan_deg":25.6538,"arg_perigee_deg":79.9393,"mean_anomaly_deg":280.193,"bstar":-0.00097166,"rev_number":29964,"period_min":109.8048529243,"perigee_km":1216.3659200464,"apogee_km":1218.9955921535,"semimajor_km":7595.8177561,"source":"CELESTRAK","updated_at":"2026-05-25T13:38:22.343120Z"}}}